This is the latest recevied weather packets stored in our database for station/object OK1FET-16. If no packets are shown the sender has not sent any weather packets the latest 10 day(s).
| Time | Temp. | Humidity | Pressure | Rain* | Wind** | Luminosity | Snow |
|---|---|---|---|---|---|---|---|
| 1787641883 | 18.33° C | 59% | 1067.8 hPa | - | - | - | - |
| 1787641612 | 18.33° C | 60% | 1067.9 hPa | - | - | - | - |
| 1787641342 | 18.33° C | 59% | 1067.7 hPa | - | - | - | - |
| 1787640801 | 18.89° C | 59% | 1067.9 hPa | - | - | - | - |
| 1787640531 | 19.44° C | 58% | 1068 hPa | - | - | - | - |
| 1787640260 | 20° C | 58% | 1068 hPa | - | - | - | - |
| 1787639989 | 20° C | 58% | 1068.1 hPa | - | - | - | - |
| 1787639719 | 20.56° C | 57% | 1068.1 hPa | - | - | - | - |
| 1787639448 | 21.11° C | 57% | 1068.1 hPa | - | - | - | - |
| 1787639177 | 21.11° C | 57% | 1068 hPa | - | - | - | - |
| 1787638907 | 20.56° C | 58% | 1068.2 hPa | - | - | - | - |
| 1787638636 | 20° C | 59% | 1068.1 hPa | - | - | - | - |
| 1787638366 | 19.44° C | 60% | 1068.2 hPa | - | - | - | - |
| 1787638095 | 18.33° C | 60% | 1068.2 hPa | - | - | - | - |
| 1787637825 | 18.33° C | 61% | 1068.1 hPa | - | - | - | - |
| 1787637555 | 17.22° C | 62% | 1068.2 hPa | - | - | - | - |
| 1787636745 | 14.44° C | 66% | 1068.1 hPa | - | - | - | - |
| 1787636475 | 13.89° C | 66% | 1067.9 hPa | - | - | - | - |
| 1787636205 | 13.89° C | 67% | 1067.9 hPa | - | - | - | - |
| 1787635935 | 13.89° C | 67% | 1067.9 hPa | - | - | - | - |
| 1787635665 | 13.89° C | 67% | 1068 hPa | - | - | - | - |
| 1787635395 | 13.89° C | 67% | 1067.8 hPa | - | - | - | - |
| 1787634855 | 13.89° C | 67% | 1067.7 hPa | - | - | - | - |
| 1787634586 | 13.33° C | 67% | 1067.6 hPa | - | - | - | - |
| 1787634316 | 13.33° C | 67% | 1067.7 hPa | - | - | - | - |
* Rain since midnight (hover to see other rain measurements)
** Current wind speed in m/s (hover to see current wind gust speed)